QPF
0.00 0.00 0.00 0.00 0.00 0.00 0.00 0.00 0.00 0.00 0.00 0.00 0.00 0.00 0.00 0.00 0.00 0.00 0.00 0.00 0.00 0.00 0.00 0.00 0.00 0.00 0.00 0.00 0.00 0.00 0.00 0.00 0.00 0.00 0.00 0.00 0.00 0.01 0.01 0.00 0.00 0.00 0.00 0.00
0.00 0.00 0.00 0.00 0.00 0.00 0.00 0.00 0.00 0.00 0.00 0.00 0.00 0.00 0.00 0.00 0.00 0.00 0.00 0.00 0.00 0.00 0.00 0.00 0.00 0.00 0.00 0.00 0.00 0.00 0.01 0.01 0.00 0.00 0.00 0.00 0.00 0.01 0.01 0.00 0.00 0.00 0.00 0.00
0.00 0.00 0.00 0.00 0.00 0.00 0.00 0.00 0.00 0.00 0.00 0.00 0.00 0.00 0.00 0.00 0.00 0.00 0.00 0.00 0.00 0.00 0.00 0.00 0.00 0.00 0.00 0.00 0.00 0.00 0.01 0.01 0.01 0.01 0.00 0.00 0.00 0.00 0.00 0.00 0.00 0.00 0.00 0.00
0.00 0.00 0.00 0.00 0.00 0.00 0.00 0.01 0.00 0.00 0.00 0.00 0.00 0.00 0.00 0.00 0.00 0.00 0.00 0.00 0.00 0.00 0.00 0.00 0.00 0.00 0.00 0.00 0.00 0.00 0.00 0.01 0.01 0.01 0.01 0.00 0.00 0.00 0.00 0.00 0.00 0.00 0.00 0.00
0.00 0.00 0.00 0.00 0.00 0.00 0.00 0.01 0.00 0.00 0.00 0.00 0.00 0.00 0.00 0.00 0.00 0.00 0.00 0.00 0.00 0.00 0.00 0.00 0.00 0.00 0.00 0.00 0.00 0.00 0.00 0.01 0.01 0.01 0.01 0.01 0.00 0.00 0.00 0.00 0.00 0.00 0.00 0.00
0.00 0.00 0.00 0.00 0.00 0.00 0.00 0.01 0.01 0.00 0.00 0.00 0.00 0.00 0.00 0.00 0.00 0.00 0.00 0.00 0.00 0.00 0.00 0.00 0.00 0.00 0.00 0.00 0.00 0.00 0.00 0.00 0.00 0.01 0.01 0.01 0.00 0.00 0.00 0.00 0.00 0.00 0.00 0.00
0.00 0.00 0.00 0.00 0.00 0.00 0.00 0.00 0.00 0.00 0.00 0.00 0.00 0.00 0.00 0.00 0.00 0.00 0.00 0.00 0.00 0.00 0.00 0.00 0.00 0.00 0.00 0.00 0.00 0.00 0.00 0.00 0.00 0.00 0.01 0.00 0.00 0.00 0.00 0.00 0.00 0.00 0.00 0.00
0.00 0.00 0.00 0.00 0.00 0.00 0.00 0.00 0.00 0.00 0.00 0.00 0.00 0.00 0.00 0.00 0.00 0.00 0.00 0.00 0.00 0.00 0.00 0.00 0.00 0.00 0.00 0.00 0.00 0.00 0.01 0.01 0.00 0.00 0.00 0.01 0.01 0.00 0.00 0.00 0.00 0.00 0.00 0.00
0.00 0.00 0.00 0.00 0.00 0.00 0.00 0.00 0.00 0.00 0.00 0.00 0.00 0.00 0.00 0.00 0.00 0.00 0.00 0.00 0.00 0.00 0.00 0.00 0.00 0.00 0.00 0.00 0.00 0.00 0.00 0.01 0.01 0.01 0.00 0.00 0.01 0.01 0.01 0.00 0.00 0.00 0.00 0.00
0.00 0.00 0.00 0.00 0.00 0.00 0.00 0.00 0.00 0.00 0.00 0.00 0.00 0.00 0.00 0.00 0.00 0.00 0.00 0.00 0.00 0.00 0.00 0.00 0.00 0.00 0.00 0.00 0.00 0.00 0.00 0.00 0.01 0.01 0.01 0.00 0.01 0.01 0.01 0.01 0.00 0.00 0.00 0.00
0.00 0.00 0.00 0.00 0.00 0.00 0.00 0.00 0.00 0.00 0.00 0.00 0.00 0.00 0.00 0.00 0.00 0.00 0.00 0.00 0.00 0.00 0.00 0.00 0.00 0.00 0.00 0.00 0.00 0.00 0.00 0.00 0.01 0.01 0.01 0.01 0.01 0.01 0.01 0.01 0.01 0.00 0.00 0.00
0.01 0.00 0.00 0.00 0.00 0.00 0.00 0.00 0.00 0.00 0.00 0.00 0.00 0.00 0.00 0.00 0.00 0.00 0.00 0.00 0.00 0.00 0.00 0.00 0.00 0.00 0.00 0.00 0.00 0.00 0.00 0.00 0.01 0.01 0.01 0.01 0.01 0.01 0.01 0.01 0.01 0.00 0.00 0.00
0.00 0.00 0.00 0.00 0.00 0.00 0.00 0.00 0.00 0.00 0.00 0.00 0.00 0.00 0.00 0.00 0.00 0.00 0.00 0.00 0.00 0.00 0.00 0.00 0.00 0.00 0.00 0.00 0.00 0.00 0.00 0.00 0.01 0.01 0.01 0.01 0.01 0.01 0.01 0.01 0.00 0.00 0.00 0.00
0.00 0.00 0.00 0.00 0.00 0.00 0.00 0.00 0.00 0.00 0.00 0.00 0.00 0.00 0.00 0.00 0.00 0.00 0.00 0.00 0.00 0.00 0.00 0.00 0.00 0.00 0.00 0.00 0.00 0.00 0.00 0.00 0.01 0.01 0.01 0.02 0.02 0.02 0.01 0.01 0.01 0.00 0.00 0.00
0.00 0.00 0.00 0.00 0.00 0.00 0.00 0.00 0.00 0.00 0.00 0.00 0.00 0.00 0.00 0.00 0.00 0.00 0.00 0.00 0.00 0.00 0.00 0.00 0.00 0.00 0.00 0.00 0.00 0.00 0.00 0.00 0.01 0.01 0.01 0.02 0.02 0.02 0.02 0.02 0.01 0.01 0.00 0.00
0.00 0.00 0.00 0.00 0.00 0.00 0.00 0.00 0.00 0.00 0.00 0.00 0.00 0.00 0.00 0.00 0.00 0.00 0.00 0.00 0.00 0.00 0.00 0.00 0.00 0.00 0.00 0.00 0.01 0.01 0.01 0.01 0.01 0.01 0.02 0.02 0.03 0.03 0.02 0.02 0.02 0.01 0.01 0.01
0.00 0.00 0.00 0.00 0.00 0.00 0.00 0.00 0.00 0.00 0.00 0.00 0.00 0.00 0.00 0.00 0.00 0.00 0.00 0.00 0.00 0.00 0.00 0.01 0.01 0.00 0.00 0.01 0.01 0.01 0.01 0.01 0.02 0.02 0.02 0.02 0.02 0.03 0.03 0.02 0.02 0.01 0.01 0.01
0.00 0.00 0.00 0.00 0.00 0.00 0.00 0.00 0.00 0.00 0.00 0.00 0.00 0.00 0.00 0.00 0.00 0.00 0.00 0.00 0.00 0.00 0.00 0.00 0.01 0.01 0.01 0.01 0.01 0.01 0.01 0.01 0.02 0.02 0.02 0.02 0.02 0.02 0.02 0.02 0.02 0.01 0.01 0.01
0.00 0.00 0.00 0.00 0.00 0.00 0.00 0.00 0.00 0.00 0.00 0.00 0.00 0.00 0.00 0.00 0.00 0.00 0.00 0.00 0.00 0.00 0.00 0.00 0.01 0.01 0.01 0.01 0.01 0.01 0.01 0.01 0.01 0.01 0.02 0.02 0.02 0.02 0.02 0.02 0.02 0.02 0.01 0.01
0.00 0.00 0.00 0.00 0.00 0.00 0.00 0.00 0.00 0.00 0.00 0.00 0.00 0.00 0.00 0.00 0.00 0.00 0.00 0.00 0.00 0.00 0.00 0.00 0.00 0.01 0.01 0.01 0.01 0.01 0.01 0.01 0.01 0.01 0.01 0.02 0.02 0.02 0.02 0.02 0.02 0.02 0.01 0.01
0.00 0.00 0.00 0.00 0.00 0.00 0.00 0.00 0.00 0.00 0.00 0.00 0.00 0.00 0.00 0.00 0.00 0.00 0.00 0.00 0.00 0.00 0.00 0.00 0.00 0.00 0.01 0.01 0.02 0.02 0.02 0.01 0.01 0.01 0.01 0.02 0.02 0.02 0.02 0.01 0.01 0.02 0.02 0.01
0.00 0.00 0.00 0.00 0.00 0.00 0.00 0.00 0.00 0.00 0.00 0.00 0.00 0.00 0.00 0.00 0.00 0.00 0.00 0.00 0.00 0.00 0.00 0.00 0.00 0.00 0.01 0.02 0.02 0.02 0.02 0.01 0.01 0.01 0.01 0.02 0.02 0.02 0.02 0.02 0.02 0.02 0.02 0.01
0.00 0.00 0.00 0.00 0.00 0.00 0.00 0.00 0.00 0.00 0.00 0.00 0.00 0.00 0.01 0.01 0.00 0.00 0.00 0.00 0.00 0.00 0.00 0.00 0.00 0.01 0.01 0.01 0.02 0.02 0.01 0.01 0.01 0.01 0.01 0.01 0.02 0.02 0.03 0.03 0.03 0.03 0.03 0.02
0.00 0.00 0.00 0.00 0.00 0.00 0.00 0.00 0.00 0.00 0.00 0.00 0.01 0.01 0.01 0.00 0.00 0.00 0.00 0.00 0.01 0.01 0.01 0.00 0.00 0.01 0.01 0.01 0.01 0.01 0.01 0.01 0.01 0.01 0.01 0.01 0.01 0.02 0.03 0.05 0.05 0.04 0.04 0.03
0.00 0.00 0.00 0.00 0.00 0.00 0.00 0.00 0.00 0.00 0.00 0.00 0.00 0.00 0.01 0.01 0.00 0.00 0.00 0.01 0.01 0.01 0.01 0.01 0.01 0.01 0.01 0.01 0.01 0.01 0.01 0.01 0.01 0.01 0.01 0.02 0.01 0.02 0.04 0.05 0.06 0.06 0.06 0.05
0.00 0.00 0.00 0.00 0.00 0.00 0.00 0.00 0.00 0.00 0.00 0.00 0.00 0.01 0.00 0.00 0.00 0.00 0.00 0.01 0.01 0.01 0.01 0.01 0.00 0.01 0.00 0.01 0.01 0.01 0.01 0.01 0.01 0.02 0.02 0.02 0.02 0.02 0.04 0.05 0.05 0.06 0.07 0.07
0.00 0.00 0.00 0.00 0.00 0.00 0.00 0.00 0.01 0.01 0.01 0.01 0.01 0.01 0.00 0.00 0.00 0.00 0.00 0.00 0.01 0.01 0.01 0.01 0.01 0.01 0.01 0.01 0.01 0.01 0.01 0.01 0.01 0.02 0.02 0.02 0.02 0.03 0.03 0.04 0.05 0.06 0.07 0.08
MSLP
1014.70 1014.86 1015.10 1015.40 1015.72 1016.03 1016.28 1016.44 1016.49 1016.43 1016.27 1016.05 1015.80 1015.57 1015.38 1015.26 1015.19 1015.17 1015.15 1015.11 1015.01 1014.82 1014.55 1014.21 1013.82 1013.42 1013.05 1012.74 1012.51 1012.38 1012.34 1012.36 1012.43 1012.52 1012.60 1012.66 1012.69 1012.71 1012.73 1012.75 1012.80 1012.88 1012.99 1013.12
1015.17 1015.39 1015.66 1015.98 1016.29 1016.57 1016.77 1016.88 1016.89 1016.80 1016.64 1016.44 1016.26 1016.11 1016.02 1016.00 1016.03 1016.08 1016.12 1016.11 1016.01 1015.80 1015.49 1015.08 1014.62 1014.14 1013.69 1013.30 1013.00 1012.78 1012.66 1012.59 1012.56 1012.54 1012.51 1012.45 1012.37 1012.28 1012.19 1012.14 1012.14 1012.19 1012.30 1012.46
1015.59 1015.88 1016.21 1016.55 1016.87 1017.13 1017.30 1017.37 1017.34 1017.23 1017.08 1016.91 1016.78 1016.70 1016.69 1016.75 1016.86 1016.97 1017.06 1017.06 1016.96 1016.73 1016.38 1015.93 1015.42 1014.89 1014.38 1013.93 1013.57 1013.29 1013.09 1012.94 1012.81 1012.67 1012.52 1012.32 1012.11 1011.88 1011.68 1011.52 1011.43 1011.43 1011.50 1011.65
1015.95 1016.30 1016.68 1017.05 1017.37 1017.62 1017.77 1017.82 1017.78 1017.67 1017.52 1017.38 1017.29 1017.26 1017.31 1017.43 1017.59 1017.75 1017.85 1017.87 1017.75 1017.51 1017.13 1016.65 1016.11 1015.54 1015.01 1014.53 1014.13 1013.80 1013.54 1013.32 1013.10 1012.87 1012.59 1012.27 1011.91 1011.55 1011.21 1010.93 1010.73 1010.64 1010.65 1010.75
1016.22 1016.62 1017.03 1017.42 1017.76 1018.00 1018.14 1018.18 1018.14 1018.03 1017.90 1017.79 1017.73 1017.75 1017.84 1017.99 1018.17 1018.33 1018.44 1018.44 1018.31 1018.05 1017.65 1017.15 1016.60 1016.03 1015.48 1015.00 1014.58 1014.23 1013.94 1013.66 1013.38 1013.06 1012.68 1012.24 1011.77 1011.27 1010.81 1010.40 1010.08 1009.88 1009.80 1009.83
1016.43 1016.85 1017.28 1017.68 1018.01 1018.26 1018.40 1018.44 1018.40 1018.31 1018.20 1018.12 1018.09 1018.13 1018.24 1018.40 1018.58 1018.73 1018.81 1018.78 1018.63 1018.34 1017.92 1017.42 1016.86 1016.30 1015.76 1015.29 1014.87 1014.52 1014.20 1013.90 1013.56 1013.18 1012.72 1012.20 1011.63 1011.03 1010.45 1009.93 1009.50 1009.19 1009.00 1008.94
1016.60 1017.03 1017.45 1017.85 1018.17 1018.41 1018.56 1018.61 1018.58 1018.52 1018.44 1018.39 1018.38 1018.44 1018.55 1018.69 1018.84 1018.96 1019.00 1018.93 1018.73 1018.41 1017.98 1017.47 1016.92 1016.37 1015.85 1015.39 1014.98 1014.63 1014.31 1013.98 1013.61 1013.18 1012.68 1012.10 1011.46 1010.79 1010.13 1009.52 1008.99 1008.58 1008.29 1008.13
1016.78 1017.19 1017.60 1017.98 1018.30 1018.53 1018.68 1018.74 1018.75 1018.71 1018.67 1018.64 1018.65 1018.71 1018.81 1018.93 1019.03 1019.09 1019.07 1018.95 1018.71 1018.35 1017.90 1017.39 1016.84 1016.30 1015.80 1015.34 1014.94 1014.58 1014.24 1013.89 1013.50 1013.04 1012.50 1011.88 1011.21 1010.50 1009.79 1009.13 1008.54 1008.04 1007.67 1007.42
1017.00 1017.40 1017.79 1018.14 1018.45 1018.68 1018.83 1018.92 1018.95 1018.94 1018.93 1018.93 1018.95 1019.01 1019.08 1019.15 1019.20 1019.20 1019.11 1018.93 1018.64 1018.25 1017.78 1017.25 1016.70 1016.17 1015.66 1015.20 1014.79 1014.41 1014.04 1013.66 1013.23 1012.74 1012.18 1011.55 1010.86 1010.14 1009.42 1008.74 1008.11 1007.57 1007.13 1006.80
1017.29 1017.67 1018.04 1018.38 1018.67 1018.90 1019.06 1019.17 1019.23 1019.26 1019.28 1019.29 1019.32 1019.36 1019.40 1019.42 1019.40 1019.33 1019.18 1018.93 1018.59 1018.16 1017.67 1017.13 1016.58 1016.04 1015.52 1015.04 1014.60 1014.18 1013.76 1013.33 1012.86 1012.33 1011.75 1011.10 1010.42 1009.71 1009.01 1008.33 1007.70 1007.14 1006.66 1006.27
1017.64 1018.01 1018.37 1018.70 1018.98 1019.22 1019.40 1019.53 1019.61 1019.67 1019.70 1019.73 1019.75 1019.77 1019.77 1019.74 1019.66 1019.51 1019.30 1019.00 1018.61 1018.15 1017.64 1017.09 1016.53 1015.97 1015.43 1014.91 1014.42 1013.94 1013.46 1012.96 1012.43 1011.86 1011.25 1010.60 1009.93 1009.24 1008.57 1007.91 1007.30 1006.74 1006.24 1005.80
1018.03 1018.40 1018.75 1019.08 1019.37 1019.61 1019.80 1019.95 1020.06 1020.13 1020.18 1020.22 1020.22 1020.21 1020.17 1020.08 1019.94 1019.73 1019.46 1019.11 1018.69 1018.21 1017.68 1017.12 1016.55 1015.98 1015.41 1014.86 1014.30 1013.76 1013.20 1012.63 1012.03 1011.41 1010.77 1010.11 1009.44 1008.78 1008.14 1007.52 1006.93 1006.38 1005.86 1005.38
1018.41 1018.78 1019.14 1019.47 1019.77 1020.02 1020.22 1020.39 1020.51 1020.59 1020.65 1020.67 1020.66 1020.62 1020.53 1020.39 1020.19 1019.94 1019.61 1019.23 1018.78 1018.29 1017.76 1017.20 1016.63 1016.05 1015.46 1014.86 1014.26 1013.64 1013.01 1012.37 1011.70 1011.03 1010.36 1009.68 1009.03 1008.39 1007.78 1007.19 1006.62 1006.08 1005.55 1005.02
1018.73 1019.12 1019.49 1019.83 1020.13 1020.38 1020.59 1020.76 1020.89 1020.98 1021.02 1021.03 1021.00 1020.92 1020.79 1020.60 1020.36 1020.06 1019.70 1019.30 1018.84 1018.35 1017.82 1017.27 1016.70 1016.12 1015.51 1014.89 1014.25 1013.58 1012.90 1012.19 1011.48 1010.77 1010.06 1009.38 1008.73 1008.11 1007.52 1006.95 1006.40 1005.85 1005.29 1004.73
1018.96 1019.37 1019.74 1020.09 1020.39 1020.64 1020.85 1021.02 1021.14 1021.22 1021.25 1021.23 1021.17 1021.06 1020.89 1020.67 1020.39 1020.06 1019.68 1019.26 1018.80 1018.31 1017.80 1017.27 1016.71 1016.14 1015.54 1014.90 1014.24 1013.55 1012.83 1012.09 1011.35 1010.61 1009.90 1009.21 1008.56 1007.95 1007.37 1006.82 1006.26 1005.70 1005.11 1004.48
1019.09 1019.51 1019.89 1020.23 1020.52 1020.77 1020.96 1021.11 1021.22 1021.27 1021.29 1021.25 1021.16 1021.02 1020.82 1020.56 1020.26 1019.91 1019.51 1019.09 1018.63 1018.15 1017.66 1017.14 1016.61 1016.05 1015.46 1014.83 1014.17 1013.48 1012.75 1012.01 1011.26 1010.53 1009.81 1009.13 1008.49 1007.89 1007.32 1006.76 1006.20 1005.61 1004.98 1004.30
1019.13 1019.55 1019.92 1020.25 1020.53 1020.75 1020.92 1021.04 1021.12 1021.15 1021.13 1021.07 1020.95 1020.79 1020.57 1020.29 1019.97 1019.60 1019.20 1018.77 1018.32 1017.85 1017.37 1016.87 1016.35 1015.82 1015.25 1014.64 1014.00 1013.32 1012.62 1011.89 1011.16 1010.44 1009.75 1009.09 1008.46 1007.87 1007.30 1006.74 1006.16 1005.54 1004.87 1004.14
1019.09 1019.50 1019.87 1020.17 1020.42 1020.61 1020.74 1020.83 1020.87 1020.86 1020.82 1020.73 1020.59 1020.40 1020.16 1019.88 1019.54 1019.17 1018.76 1018.33 1017.88 1017.41 1016.94 1016.45 1015.95 1015.43 1014.88 1014.30 1013.68 1013.04 1012.36 1011.67 1010.98 1010.30 1009.63 1009.00 1008.39 1007.81 1007.25 1006.67 1006.08 1005.44 1004.74 1003.98
1019.00 1019.40 1019.74 1020.02 1020.22 1020.37 1020.46 1020.50 1020.49 1020.45 1020.37 1020.26 1020.10 1019.90 1019.65 1019.35 1019.01 1018.64 1018.22 1017.79 1017.33 1016.87 1016.39 1015.90 1015.41 1014.90 1014.36 1013.80 1013.22 1012.60 1011.97 1011.31 1010.66 1010.02 1009.39 1008.78 1008.20 1007.63 1007.07 1006.50 1005.91 1005.26 1004.56 1003.79
1018.88 1019.26 1019.57 1019.81 1019.97 1020.06 1020.09 1020.08 1020.03 1019.95 1019.83 1019.69 1019.52 1019.30 1019.05 1018.75 1018.42 1018.04 1017.63 1017.19 1016.73 1016.25 1015.77 1015.28 1014.77 1014.26 1013.73 1013.18 1012.61 1012.02 1011.42 1010.80 1010.19 1009.58 1008.98 1008.40 1007.84 1007.30 1006.75 1006.19 1005.61 1004.98 1004.30 1003.56
1018.74 1019.09 1019.36 1019.55 1019.65 1019.69 1019.66 1019.59 1019.49 1019.37 1019.22 1019.05 1018.86 1018.64 1018.38 1018.09 1017.76 1017.39 1016.98 1016.54 1016.08 1015.60 1015.10 1014.60 1014.08 1013.56 1013.02 1012.48 1011.92 1011.34 1010.76 1010.17 1009.58 1008.99 1008.42 1007.86 1007.32 1006.79 1006.27 1005.73 1005.18 1004.59 1003.97 1003.29
1018.55 1018.87 1019.10 1019.23 1019.27 1019.24 1019.16 1019.03 1018.88 1018.71 1018.53 1018.34 1018.13 1017.91 1017.66 1017.37 1017.05 1016.69 1016.29 1015.86 1015.39 1014.91 1014.41 1013.89 1013.37 1012.83 1012.29 1011.74 1011.17 1010.60 1010.02 1009.44 1008.86 1008.30 1007.74 1007.20 1006.67 1006.17 1005.66 1005.17 1004.66 1004.14 1003.59 1003.02
1018.31 1018.59 1018.76 1018.82 1018.80 1018.71 1018.56 1018.38 1018.18 1017.97 1017.76 1017.55 1017.33 1017.10 1016.86 1016.58 1016.27 1015.93 1015.54 1015.12 1014.67 1014.19 1013.69 1013.17 1012.64 1012.10 1011.55 1010.99 1010.42 1009.85 1009.27 1008.69 1008.11 1007.55 1007.00 1006.47 1005.96 1005.47 1005.01 1004.55 1004.11 1003.67 1003.22 1002.76
1017.98 1018.20 1018.30 1018.30 1018.22 1018.06 1017.86 1017.62 1017.38 1017.14 1016.90 1016.67 1016.45 1016.22 1015.98 1015.72 1015.43 1015.10 1014.74 1014.34 1013.91 1013.45 1012.96 1012.45 1011.92 1011.38 1010.83 1010.27 1009.70 1009.12 1008.53 1007.95 1007.37 1006.81 1006.26 1005.74 1005.25 1004.79 1004.36 1003.96 1003.58 1003.23 1002.89 1002.56
1017.53 1017.67 1017.71 1017.64 1017.50 1017.28 1017.03 1016.76 1016.49 1016.22 1015.96 1015.72 1015.50 1015.27 1015.04 1014.79 1014.52 1014.22 1013.88 1013.51 1013.11 1012.67 1012.20 1011.71 1011.21 1010.68 1010.14 1009.58 1009.01 1008.43 1007.85 1007.26 1006.68 1006.12 1005.58 1005.06 1004.59 1004.15 1003.76 1003.42 1003.11 1002.85 1002.62 1002.41
1016.95 1017.01 1016.98 1016.85 1016.65 1016.40 1016.11 1015.82 1015.52 1015.25 1014.98 1014.74 1014.51 1014.29 1014.07 1013.84 1013.58 1013.30 1012.99 1012.65 1012.27 1011.86 1011.43 1010.97 1010.48 1009.98 1009.46 1008.91 1008.35 1007.78 1007.21 1006.63 1006.05 1005.49 1004.96 1004.46 1004.00 1003.60 1003.25 1002.96 1002.72 1002.54 1002.40 1002.30
1016.22 1016.22 1016.12 1015.94 1015.71 1015.43 1015.14 1014.84 1014.55 1014.27 1014.02 1013.78 1013.56 1013.34 1013.12 1012.90 1012.65 1012.39 1012.10 1011.77 1011.42 1011.04 1010.64 1010.21 1009.75 1009.28 1008.78 1008.26 1007.72 1007.17 1006.60 1006.03 1005.47 1004.92 1004.40 1003.92 1003.49 1003.11 1002.80 1002.56 1002.38 1002.26 1002.21 1002.20
Thickness
5717 5717 5716 5715 5715 5716 5717 5720 5717 5718 5716 5719 5721 5721 5723 5724 5724 5724 5723 5723 5722 5721 5721 5720 5720 5719 5718 5717 5716 5714 5712 5709 5707 5706 5703 5700 5698 5696 5694 5692 5691 5689 5686 5684
5710 5712 5713 5710 5714 5714 5713 5715 5716 5715 5713 5720 5720 5721 5720 5720 5719 5718 5717 5718 5719 5719 5717 5717 5716 5714 5713 5712 5712 5711 5709 5706 5704 5702 5700 5697 5695 5694 5692 5690 5689 5687 5685 5683
5707 5708 5707 5704 5712 5711 5709 5711 5712 5709 5711 5714 5713 5711 5713 5714 5714 5712 5712 5712 5712 5714 5714 5714 5714 5712 5710 5710 5709 5707 5705 5702 5700 5699 5696 5694 5693 5691 5689 5687 5687 5685 5684 5682
5703 5700 5687 5705 5714 5711 5706 5705 5708 5707 5708 5709 5708 5708 5710 5710 5709 5708 5707 5707 5707 5708 5709 5710 5711 5709 5708 5707 5705 5703 5701 5699 5697 5695 5693 5691 5690 5688 5687 5687 5685 5683 5682 5680
5698 5693 5696 5700 5705 5705 5702 5697 5703 5702 5702 5703 5706 5706 5705 5704 5703 5702 5701 5701 5701 5702 5704 5705 5704 5704 5703 5702 5700 5698 5695 5694 5693 5691 5689 5688 5686 5685 5685 5685 5683 5682 5681 5678
5692 5686 5686 5699 5705 5707 5702 5691 5699 5700 5697 5698 5699 5696 5696 5697 5696 5695 5695 5695 5695 5696 5698 5697 5697 5697 5696 5695 5694 5691 5690 5689 5689 5687 5685 5684 5684 5683 5682 5681 5680 5680 5679 5678
5688 5687 5695 5699 5700 5698 5686 5690 5695 5696 5694 5693 5691 5692 5691 5691 5690 5689 5687 5687 5688 5689 5689 5688 5689 5689 5689 5689 5687 5686 5685 5684 5683 5682 5681 5681 5680 5679 5678 5678 5677 5677 5676 5675
5685 5682 5686 5693 5694 5690 5690 5693 5691 5690 5689 5686 5685 5684 5684 5683 5681 5681 5680 5679 5680 5680 5680 5680 5681 5680 5680 5679 5679 5679 5677 5676 5676 5676 5676 5676 5675 5673 5673 5673 5672 5672 5672 5672
5687 5684 5685 5688 5687 5686 5687 5685 5683 5682 5681 5679 5676 5675 5675 5674 5675 5674 5673 5672 5672 5672 5671 5672 5671 5671 5670 5670 5670 5670 5669 5669 5669 5670 5670 5669 5668 5668 5668 5668 5668 5669 5668 5667
5675 5676 5676 5676 5678 5678 5678 5676 5676 5675 5673 5672 5669 5668 5667 5667 5668 5666 5665 5664 5663 5663 5663 5663 5662 5662 5662 5662 5661 5661 5662 5662 5663 5663 5663 5663 5661 5662 5662 5662 5662 5663 5663 5662
5667 5667 5666 5667 5668 5668 5668 5668 5667 5666 5664 5663 5661 5660 5660 5659 5659 5658 5657 5655 5654 5654 5654 5654 5653 5653 5653 5652 5652 5653 5654 5655 5655 5654 5655 5654 5654 5654 5654 5655 5656 5654 5656 5656
5660 5664 5662 5660 5661 5660 5658 5657 5657 5656 5655 5654 5653 5652 5651 5651 5650 5649 5648 5647 5645 5645 5645 5645 5644 5644 5643 5642 5642 5643 5644 5645 5645 5644 5644 5645 5644 5644 5643 5643 5643 5643 5643 5644
5656 5655 5654 5652 5652 5651 5649 5648 5647 5646 5645 5644 5644 5643 5642 5641 5641 5640 5639 5637 5636 5635 5635 5635 5634 5633 5633 5632 5632 5632 5632 5633 5633 5633 5634 5634 5634 5634 5634 5633 5632 5633 5633 5633
5644 5642 5641 5641 5640 5640 5640 5638 5638 5637 5636 5635 5633 5632 5631 5631 5630 5629 5628 5628 5627 5626 5625 5625 5624 5623 5622 5622 5621 5621 5621 5621 5621 5621 5622 5623 5624 5624 5625 5625 5626 5628 5625 5624
5633 5633 5632 5631 5630 5629 5628 5627 5626 5625 5624 5624 5622 5621 5620 5619 5618 5618 5618 5617 5616 5615 5614 5614 5613 5612 5611 5610 5610 5610 5610 5610 5610 5610 5611 5612 5613 5614 5616 5616 5618 5619 5619 5616
5622 5621 5619 5618 5617 5617 5616 5615 5614 5613 5612 5611 5610 5609 5608 5608 5607 5606 5606 5605 5604 5604 5604 5602 5602 5601 5599 5598 5598 5598 5599 5598 5597 5599 5601 5603 5604 5605 5606 5607 5609 5609 5610 5610
5610 5608 5608 5606 5606 5605 5604 5603 5602 5601 5600 5599 5598 5597 5596 5596 5596 5595 5594 5594 5593 5593 5592 5592 5591 5589 5587 5586 5586 5588 5589 5589 5587 5589 5592 5594 5594 5595 5596 5597 5599 5601 5601 5601
5601 5599 5598 5597 5595 5594 5592 5591 5590 5589 5588 5587 5586 5585 5584 5584 5584 5584 5583 5583 5582 5581 5581 5580 5579 5577 5576 5576 5575 5577 5579 5580 5580 5581 5583 5584 5585 5586 5587 5588 5591 5591 5592 5590
5587 5586 5585 5584 5582 5581 5580 5579 5577 5576 5575 5574 5573 5573 5572 5572 5572 5572 5571 5570 5569 5570 5570 5569 5565 5564 5565 5565 5563 5565 5568 5569 5571 5573 5574 5574 5575 5577 5579 5580 5582 5583 5583 5582
5573 5572 5571 5570 5569 5568 5566 5566 5565 5564 5563 5562 5561 5561 5561 5561 5560 5559 5558 5558 5558 5558 5557 5556 5554 5554 5555 5555 5553 5555 5557 5559 5561 5564 5565 5567 5567 5569 5570 5571 5572 5574 5574 5574
5559 5558 5557 5556 5555 5554 5553 5552 5552 5551 5550 5549 5549 5548 5548 5549 5547 5546 5546 5547 5548 5545 5544 5542 5543 5544 5544 5543 5542 5544 5547 5549 5551 5554 5556 5558 5559 5561 5562 5563 5564 5565 5565 5565
5547 5546 5545 5543 5542 5542 5541 5540 5539 5538 5538 5537 5536 5536 5536 5536 5536 5535 5535 5534 5536 5532 5531 5533 5533 5533 5532 5530 5532 5534 5536 5539 5541 5544 5546 5548 5550 5552 5553 5555 5555 5556 5556 5557
5535 5534 5532 5531 5530 5530 5529 5528 5527 5526 5525 5525 5524 5524 5523 5523 5523 5522 5524 5525 5523 5521 5520 5522 5522 5520 5518 5520 5523 5525 5527 5529 5532 5535 5537 5539 5541 5543 5544 5545 5546 5547 5547 5548
5523 5521 5520 5519 5518 5517 5517 5517 5516 5515 5514 5514 5513 5512 5512 5512 5513 5513 5512 5512 5510 5508 5510 5511 5509 5509 5509 5512 5515 5517 5519 5521 5523 5524 5527 5529 5532 5533 5535 5536 5537 5538 5538 5540
5510 5509 5508 5507 5506 5506 5506 5506 5505 5504 5503 5503 5504 5503 5502 5501 5501 5502 5501 5501 5500 5498 5500 5502 5502 5501 5502 5505 5508 5509 5511 5512 5514 5515 5517 5520 5522 5523 5525 5527 5528 5529 5530 5532
5498 5498 5497 5496 5496 5494 5494 5494 5494 5494 5493 5493 5494 5493 5492 5491 5490 5490 5489 5490 5490 5489 5490 5492 5494 5494 5496 5498 5499 5501 5502 5504 5505 5506 5508 5510 5512 5514 5516 5518 5519 5520 5522 5523
5487 5486 5485 5485 5485 5484 5484 5483 5483 5483 5483 5483 5484 5484 5482 5482 5481 5481 5480 5480 5481 5481 5482 5483 5484 5486 5487 5488 5490 5492 5493 5495 5496 5498 5499 5501 5504 5506 5508 5509 5511 5512 5512 5513